Location: Cedar Falls
(42.5280°N, 92.4450°W)
Time: 04:07:55
(UTC-06:00)

NOSS 3-1 (C) - Visible Passes

Search period start: 19 February 2018 00:00
Search period end: 01 March 2018 00:00
Orbit: 810 x 1398 km, 63.4° (Epoch: 18 February)

Date Brightness Start Highest point End Pass type
(mag) Time Alt. Az. Time Alt. Az. Time Alt. Az.
19 Feb 6.0 03:02:22 13° N 03:02:22 13° N 03:04:30 10° NNE visible
19 Feb 5.9 04:51:11 10° NNW 04:55:17 16° NNE 04:59:38 10° NE visible
20 Feb 6.2 02:18:19 12° NNE 02:18:19 12° NNE 02:19:03 10° NNE visible
20 Feb 5.9 04:05:44 10° NNW 04:09:03 14° N 04:12:33 10° NE visible
20 Feb 5.6 05:56:26 10° NNW 06:02:39 29° NE 06:09:30 10° E visible
21 Feb 6.0 03:21:39 12° N 03:22:47 13° N 03:25:49 10° NNE visible
21 Feb 5.8 05:11:18 10° NNW 05:16:44 22° NNE 05:22:39 10° ENE visible
22 Feb 6.1 02:37:34 13° N 02:37:34 13° N 02:39:41 10° NNE visible
22 Feb 6.0 04:26:07 10° NNW 04:30:41 17° NNE 04:35:36 10° ENE visible
22 Feb 5.0 06:16:25 10° NNW 06:23:33 46° NE 06:31:29 10° ESE visible
23 Feb 6.3 01:53:30 11° NNE 01:53:30 11° NNE 01:54:02 10° NNE visible
23 Feb 6.0 03:40:53 10° NNW 03:44:31 15° NNE 03:48:27 10° NE visible
23 Feb 5.4 05:31:17 10° NNW 05:37:52 34° NE 05:45:08 10° ESE visible
24 Feb 6.0 02:56:49 12° N 02:58:16 13° N 03:01:29 10° NNE visible
24 Feb 5.8 04:46:10 10° NNW 04:52:02 25° NNE 04:58:28 10° E visible
25 Feb 6.2 02:12:44 13° N 02:12:44 13° N 02:15:00 10° NNE visible
25 Feb 6.0 04:01:01 10° NNW 04:06:04 20° NNE 04:11:31 10° ENE visible
25 Feb 4.8 05:51:18 10° NNW 05:58:39 55° NE 06:06:50 10° SE visible
26 Feb 6.4 01:28:40 11° NNE 01:28:40 11° NNE 01:29:07 10° NNE visible
26 Feb 6.1 03:16:03 11° NNW 03:19:57 16° NNE 03:24:24 10° NE visible
26 Feb 5.2 05:06:08 10° NNW 05:13:02 40° NE 05:20:43 10° ESE visible
27 Feb 6.1 02:31:58 13° N 02:33:44 14° N 02:37:18 10° NE visible
27 Feb 5.6 04:21:01 10° NNW 04:27:18 29° NE 04:34:13 10° E visible
27 Feb 4.2 06:11:27 10° NW 06:19:06 88° SW 06:27:37 10° SSE visible
28 Feb 6.2 01:47:54 13° N 01:47:54 13° N 01:50:31 10° NNE visible
28 Feb 5.9 03:35:53 10° NNW 03:41:24 22° NNE 03:47:24 10° ENE visible
28 Feb 4.5 05:26:11 10° NNW 05:33:42 67° NE 05:42:05 10° SE visible
